Location: Kalispell
(48.1967°N, 114.3128°W)
Time: 06:40:36
(UTC-06:00)

Amateur Radio Satellites - All Passes

Search period start: 25 October 2014 06:10
Search period end: 26 October 2014 06:10
Location: Kalispell, 48.1967°N, 114.3128°W

Satellite Date Start Highest point End Downlink Frequencies (MHz)
Time Altitude Azimuth
AO-27 25 Oct 06:13:40 06:15:27 12° 309° (NW) 06:17:15 436.795 MHz FM
Uosat F 25 Oct 06:37:11 06:42:14 71° 288° (WNW) 06:47:15 435.120 FM
JAS-2 25 Oct 06:40:02 06:47:29 48° 97° (E) 06:54:59 435.800 - 435.900 CW/SSB, 435.910 FM
RS-15 25 Oct 06:43:32 06:54:29 60° 40° (NE) 07:05:49 29.354 - 29.394 USB, Beacon 29.352 USB
Sapphire 25 Oct 06:51:37 06:56:13 27° 322° (NW) 07:00:51 437.095 MHz 1200 baud AX-25 AFSK
AO-7 25 Oct 07:04:38 07:12:48 63° 297° (WNW) 07:20:58 29.400 - 29.500 MHz
PCSat 25 Oct 07:15:06 07:19:09 21° 328° (NNW) 07:23:12 145.825 MHz
OPAL 25 Oct 07:32:58 07:34:57 12° 271° (W) 07:36:56 ?
Hamsat 25 Oct 07:33:37 07:37:50 78° 103° (ESE) 07:42:03 145.90 MHz
STRAND 1 25 Oct 07:35:15 07:40:23 83° 255° (WSW) 07:45:35 ?
Uosat F 25 Oct 08:18:03 08:20:08 13° 307° (NW) 08:22:14 435.120 FM
JAS-2 25 Oct 08:25:12 08:32:27 47° 296° (WNW) 08:39:49 435.800 - 435.900 CW/SSB, 435.910 FM
Saudisat 1A 25 Oct 08:28:56 08:33:07 47° 121° (ESE) 08:37:22 436.775 MHz
SO-67 25 Oct 08:30:09 08:33:30 44° 99° (E) 08:36:48 435.3500 MHz FM
MaSat-1 25 Oct 08:34:22 08:35:39 12° 43° (NE) 08:36:52 437.345 MHz
Sapphire 25 Oct 08:39:45 08:41:36 12° 347° (NNW) 08:43:26 437.095 MHz 1200 baud AX-25 AFSK
RS-15 25 Oct 08:56:14 09:06:51 54° 245° (WSW) 09:17:55 29.354 - 29.394 USB, Beacon 29.352 USB
AO-7 25 Oct 08:58:42 09:04:04 19° 319° (NW) 09:09:27 29.400 - 29.500 MHz
PCSat 25 Oct 09:03:51 09:04:48 10° 354° (N) 09:05:45 145.825 MHz
Hamsat 25 Oct 09:11:13 09:13:13 13° 301° (WNW) 09:15:14 145.90 MHz
HO-68 25 Oct 09:18:15 09:23:08 19° 88° (E) 09:28:00 435.675 MHz FM
STRAND 1 25 Oct 09:18:27 09:20:24 12° 274° (W) 09:22:21 ?
SO-67 25 Oct 10:04:09 10:06:08 15° 296° (WNW) 10:08:07 435.3500 MHz FM
Saudisat 1A 25 Oct 10:08:57 10:12:52 31° 321° (NW) 10:16:49 436.775 MHz
MaSat-1 25 Oct 10:09:00 10:11:30 35° 246° (WSW) 10:13:47 437.345 MHz
JAS-2 25 Oct 10:12:30 10:15:44 13° 317° (NW) 10:19:01 435.800 - 435.900 CW/SSB, 435.910 FM
Sapphire 25 Oct 10:25:45 10:27:39 12° 14° (NNE) 10:29:33 437.095 MHz 1200 baud AX-25 AFSK
ZACube-1 25 Oct 10:43:10 10:44:37 12° 87° (E) 10:46:05 437.345 MHz
UKube-1 25 Oct 10:45:32 10:49:21 29° 96° (E) 10:53:08 145.840 MHz, 145.915 MHz
PCSat 25 Oct 10:48:03 10:50:48 14° 21° (NNE) 10:53:32 145.825 MHz
HO-68 25 Oct 11:04:34 11:11:50 88° 108° (ESE) 11:19:02 435.675 MHz FM
RS-15 25 Oct 11:13:25 11:16:26 11° 268° (W) 11:19:28 29.354 - 29.394 USB, Beacon 29.352 USB
FUNcube-1 25 Oct 11:25:56 11:29:45 31° 95° (E) 11:33:29 145.950 - 145.970 MHz USB
Oscar 11 25 Oct 11:26:15 11:30:34 71° 102° (ESE) 11:34:51 145.825 FM, Beacon 2401.500 USB
Saudisat 1A 25 Oct 11:52:16 11:53:49 12° 345° (NNW) 11:55:22 436.775 MHz
Sapphire 25 Oct 12:08:21 12:13:01 28° 39° (NE) 12:17:39 437.095 MHz 1200 baud AX-25 AFSK
ZACube-1 25 Oct 12:17:20 12:21:38 78° 285° (WNW) 12:25:49 437.345 MHz
Oscar 19 25 Oct 12:19:47 12:21:27 12° 52° (NE) 12:23:07 437.125 CW, 437.150 USB
UKube-1 25 Oct 12:21:37 12:25:34 33° 294° (WNW) 12:29:29 145.840 MHz, 145.915 MHz
PCSat 25 Oct 12:30:43 12:35:48 39° 45° (NE) 12:40:51 145.825 MHz
SO-50 25 Oct 12:35:56 12:37:25 11° 107° (ESE) 12:38:55 436.795 FM
JAS-1B 25 Oct 12:36:47 12:40:11 16° 52° (NE) 12:43:36 435.800 - 435.900 CW/SSB
KITSAT 1 25 Oct 12:49:27 12:57:06 49° 114° (ESE) 13:04:47 435.175 FM
HO-68 25 Oct 12:53:15 12:58:43 24° 309° (NW) 13:04:11 435.675 MHz FM
AO-Echo 25 Oct 12:55:02 12:56:58 12° 52° (NE) 12:58:55 ?
FUNcube-1 25 Oct 13:02:24 13:06:06 29° 294° (WNW) 13:09:43 145.950 - 145.970 MHz USB
Oscar 16 25 Oct 13:02:36 13:06:46 25° 61° (ENE) 13:10:56 437.025 USB, Beacon 2401.1428
Oscar 11 25 Oct 13:03:46 13:06:14 15° 301° (WNW) 13:08:42 145.825 FM, Beacon 2401.500 USB
Uribyol 2 25 Oct 13:24:08 13:27:45 19° 57° (ENE) 13:31:22 436.500 FM
ITAMSAT 1 25 Oct 13:30:12 13:33:56 20° 58° (ENE) 13:37:40 435.822 SSB
ISS 25 Oct 13:30:31 13:33:18 25° 142° (SE) 13:36:07 145.800 FM
Saudisat 1A 25 Oct 13:34:50 13:35:24 10° 10° (N) 13:35:58 436.775 MHz
Sapphire 25 Oct 13:51:30 13:56:55 69° 240° (WSW) 14:02:18 437.095 MHz 1200 baud AX-25 AFSK
Gurwin Techsat 1B 25 Oct 13:54:25 13:57:57 19° 57° (ENE) 14:01:31 435.225 FM
Oscar 19 25 Oct 13:54:45 13:59:50 64° 71° (ENE) 14:04:56 437.125 CW, 437.150 USB
ZACube-1 25 Oct 13:56:26 13:57:15 11° 305° (NW) 13:58:05 437.345 MHz
TMSAT-1 25 Oct 14:05:23 14:08:46 17° 56° (NE) 14:12:09 436.925 FM
SO-50 25 Oct 14:12:37 14:17:09 80° 127° (SE) 14:21:50 436.795 FM
PCSat 25 Oct 14:14:11 14:19:18 43° 245° (WSW) 14:24:24 145.825 MHz
AO-27 25 Oct 14:14:29 14:19:24 44° 67° (ENE) 14:24:21 436.795 MHz FM
JAS-1B 25 Oct 14:24:15 14:30:08 90° 253° (WSW) 14:35:51 435.800 - 435.900 CW/SSB
AO-7 25 Oct 14:26:09 14:31:35 20° 41° (NE) 14:37:02 29.400 - 29.500 MHz
AO-Echo 25 Oct 14:29:52 14:34:46 69° 72° (ENE) 14:39:52 ?
Oscar 16 25 Oct 14:40:47 14:45:49 53° 260° (W) 14:50:53 437.025 USB, Beacon 2401.1428
KITSAT 1 25 Oct 14:44:41 14:52:32 52° 317° (NW) 15:00:26 435.175 FM
Uribyol 2 25 Oct 15:01:26 15:06:40 76° 256° (WSW) 15:11:56 436.500 FM
ISS 25 Oct 15:06:26 15:09:46 75° 340° (NNW) 15:13:07 145.800 FM
ITAMSAT 1 25 Oct 15:07:42 15:12:54 71° 257° (WSW) 15:18:09 435.822 SSB
Saudisat 1A 25 Oct 15:13:01 15:16:35 23° 33° (NNE) 15:20:08 436.775 MHz
Gurwin Techsat 1B 25 Oct 15:31:59 15:37:18 81° 256° (WSW) 15:42:40 435.225 FM
UOSAT-12 25 Oct 15:32:13 15:36:44 52° 122° (ESE) 15:41:20 437.025 FM, 437.400 FM
Oscar 19 25 Oct 15:35:57 15:39:38 20° 270° (W) 15:43:19 437.125 CW, 437.150 USB
Sapphire 25 Oct 15:37:55 15:39:19 11° 259° (W) 15:40:44 437.095 MHz 1200 baud AX-25 AFSK
TMSAT-1 25 Oct 15:42:42 15:48:01 86° 255° (WSW) 15:53:22 436.925 FM
SO-50 25 Oct 15:54:34 15:58:16 23° 328° (NNW) 16:02:03 436.795 FM
AO-27 25 Oct 15:54:34 15:59:04 29° 266° (W) 16:03:37 436.795 MHz FM
AO-Echo 25 Oct 16:10:52 16:14:06 17° 272° (W) 16:17:26 ?
AO-7 25 Oct 16:14:46 16:22:54 65° 64° (ENE) 16:31:04 29.400 - 29.500 MHz
Uosat F 25 Oct 16:15:57 16:20:29 35° 65° (ENE) 16:25:03 435.120 FM
JAS-1B 25 Oct 16:19:09 16:21:46 13° 274° (W) 16:24:22 435.800 - 435.900 CW/SSB
ISS 25 Oct 16:43:30 16:46:44 44° 0° (N) 16:49:57 145.800 FM
KITSAT 1 25 Oct 16:43:36 16:49:59 25° 344° (NNW) 16:56:22 435.175 FM
Uribyol 2 25 Oct 16:45:36 16:47:02 11° 275° (W) 16:48:28 436.500 FM
Saudisat 1A 25 Oct 16:52:12 16:56:38 75° 234° (SW) 17:01:02 436.775 MHz
ITAMSAT 1 25 Oct 16:52:47 16:53:21 10° 276° (W) 16:53:55 435.822 SSB
JAS-2 25 Oct 16:56:53 17:02:10 30° 57° (ENE) 17:08:02 435.800 - 435.900 CW/SSB, 435.910 FM
Hamsat 25 Oct 16:57:48 16:59:06 11° 57° (ENE) 17:00:24 145.90 MHz
UOSAT-12 25 Oct 17:12:56 17:17:07 31° 322° (NW) 17:21:22 437.025 FM, 437.400 FM
Gurwin Techsat 1B 25 Oct 17:16:05 17:18:08 12° 275° (W) 17:20:12 435.225 FM
TMSAT-1 25 Oct 17:26:19 17:28:44 13° 274° (W) 17:31:10 436.925 FM
SO-50 25 Oct 17:39:00 17:40:32 11° 352° (N) 17:42:06 436.795 FM
Uosat F 25 Oct 17:54:41 17:59:16 35° 263° (W) 18:03:54 435.120 FM
OPAL 25 Oct 17:57:28 18:00:52 18° 93° (E) 18:04:14 ?
AO-7 25 Oct 18:08:53 18:16:12 34° 265° (W) 18:23:34 29.400 - 29.500 MHz
ISS 25 Oct 18:20:20 18:23:41 77° 20° (NNE) 18:27:02 145.800 FM
Hamsat 25 Oct 18:30:10 18:34:23 87° 76° (ENE) 18:38:36 145.90 MHz
Saudisat 1A 25 Oct 18:34:51 18:35:24 10° 252° (WSW) 18:35:56 436.775 MHz
JAS-2 25 Oct 18:40:43 18:46:43 62° 260° (W) 18:53:36 435.800 - 435.900 CW/SSB, 435.910 FM
KITSAT 1 25 Oct 18:42:12 18:48:30 24° 14° (NNE) 18:54:47 435.175 FM
UOSAT-12 25 Oct 18:56:37 18:58:44 13° 346° (NNW) 19:00:52 437.025 FM, 437.400 FM
SO-67 25 Oct 19:06:22 19:09:17 26° 68° (ENE) 19:12:13 435.3500 MHz FM
SO-50 25 Oct 19:20:41 19:23:10 14° 18° (NNE) 19:25:41 436.795 FM
OPAL 25 Oct 19:35:17 19:40:14 66° 291° (WNW) 19:45:07 ?
STRAND 1 25 Oct 19:42:42 19:46:59 26° 93° (E) 19:51:14 ?
HO-68 25 Oct 19:51:13 19:56:41 24° 51° (NE) 20:02:10 435.675 MHz FM
ISS 25 Oct 19:57:21 20:00:08 24° 219° (SW) 20:02:54 145.800 FM
Hamsat 25 Oct 20:10:32 20:10:57 10° 274° (W) 20:11:22 145.90 MHz
JAS-2 25 Oct 20:32:10 20:33:30 11° 283° (WNW) 20:34:52 435.800 - 435.900 CW/SSB, 435.910 FM
KITSAT 1 25 Oct 20:38:15 20:46:04 49° 41° (NE) 20:53:50 435.175 FM
UOSAT-12 25 Oct 20:39:09 20:40:58 12° 11° (N) 20:42:47 437.025 FM, 437.400 FM
SO-67 25 Oct 20:39:30 20:42:15 22° 266° (W) 20:45:02 435.3500 MHz FM
Oscar 11 25 Oct 20:51:45 20:53:22 12° 57° (ENE) 20:54:59 145.825 FM, Beacon 2401.500 USB
SO-50 25 Oct 21:00:35 21:05:04 37° 40° (NE) 21:09:36 436.795 FM
OPAL 25 Oct 21:16:24 21:18:12 12° 311° (NW) 21:20:00 ?
RS-15 25 Oct 21:16:45 21:23:33 19° 98° (E) 21:30:17 29.354 - 29.394 USB, Beacon 29.352 USB
STRAND 1 25 Oct 21:21:27 21:26:25 49° 292° (WNW) 21:31:21 ?
HO-68 25 Oct 21:36:24 21:43:35 87° 252° (WSW) 21:50:50 435.675 MHz FM
ZACube-1 25 Oct 21:42:22 21:45:24 18° 61° (ENE) 21:48:25 437.345 MHz
UKube-1 25 Oct 21:44:15 21:48:19 40° 68° (ENE) 21:52:24 145.840 MHz, 145.915 MHz
UOSAT-12 25 Oct 22:18:42 22:22:44 27° 35° (NE) 22:26:43 437.025 FM, 437.400 FM
Oscar 11 25 Oct 22:24:32 22:28:51 87° 77° (ENE) 22:33:13 145.825 FM, Beacon 2401.500 USB
FUNcube-1 25 Oct 22:25:19 22:29:36 41° 69° (ENE) 22:33:49 145.950 - 145.970 MHz USB
KITSAT 1 25 Oct 22:33:51 22:41:38 54° 244° (WSW) 22:49:23 435.175 FM
SO-50 25 Oct 22:41:09 22:45:44 43° 240° (WSW) 22:50:20 436.795 FM
Oscar 10/S400 25 Oct 23:11:45 00:00:31 35° 213° (SSW) 04:58:16 145.825 - 145.975 CW/USB, Beacon 145.810 USB
ZACube-1 25 Oct 23:16:49 23:21:22 64° 259° (WSW) 23:25:51 437.345 MHz
UKube-1 25 Oct 23:21:07 23:24:39 24° 266° (W) 23:28:12 145.840 MHz, 145.915 MHz
RS-15 25 Oct 23:22:55 23:33:47 72° 121° (ESE) 23:44:40 29.354 - 29.394 USB, Beacon 29.352 USB
HO-68 25 Oct 23:27:31 23:32:18 19° 272° (W) 23:37:07 435.675 MHz FM
MaSat-1 25 Oct 23:48:53 23:51:54 21° 110° (ESE) 23:54:43 437.345 MHz
UOSAT-12 25 Oct 23:58:35 00:03:18 67° 235° (SW) 00:07:55 437.025 FM, 437.400 FM
FUNcube-1 26 Oct 00:02:22 00:06:07 25° 267° (W) 00:09:49 145.950 - 145.970 MHz USB
Oscar 11 26 Oct 00:04:35 00:05:40 11° 273° (W) 00:06:45 145.825 FM, Beacon 2401.500 USB
KITSAT 1 26 Oct 00:33:52 00:35:10 10° 265° (W) 00:36:29 435.175 FM
MaSat-1 26 Oct 01:23:34 01:27:20 41° 305° (NW) 01:30:44 437.345 MHz
RS-15 26 Oct 01:36:28 01:46:55 48° 329° (NNW) 01:57:31 29.354 - 29.394 USB, Beacon 29.352 USB
JAS-1B 26 Oct 02:03:07 02:08:09 21° 91° (E) 02:13:45 435.800 - 435.900 CW/SSB
Oscar 19 26 Oct 02:03:47 02:07:04 17° 89° (E) 02:10:20 437.125 CW, 437.150 USB
AO-27 26 Oct 02:26:09 02:27:45 11° 85° (E) 02:29:20 436.795 MHz FM
AO-Echo 26 Oct 02:34:13 02:37:54 19° 89° (E) 02:41:34 ?
Oscar 16 26 Oct 02:48:43 02:53:35 41° 98° (E) 02:58:24 437.025 USB, Beacon 2401.1428
Uribyol 2 26 Oct 03:10:53 03:15:26 30° 95° (E) 03:19:57 436.500 FM
ITAMSAT 1 26 Oct 03:17:12 03:21:52 32° 95° (E) 03:26:28 435.822 SSB
PCSat 26 Oct 03:18:58 03:21:40 14° 103° (ESE) 03:24:22 145.825 MHz
Oscar 19 26 Oct 03:41:51 03:46:58 73° 288° (WNW) 03:52:04 437.125 CW, 437.150 USB
Gurwin Techsat 1B 26 Oct 03:44:50 03:49:33 31° 95° (E) 03:54:14 435.225 FM
JAS-1B 26 Oct 03:52:45 03:59:18 82° 288° (WNW) 04:07:09 435.800 - 435.900 CW/SSB
RS-15 26 Oct 03:52:57 04:02:35 33° 2° (N) 04:12:27 29.354 - 29.394 USB, Beacon 29.352 USB
TMSAT-1 26 Oct 03:55:14 03:59:51 29° 94° (E) 04:04:25 436.925 FM
AO-27 26 Oct 04:02:53 04:08:09 77° 104° (ESE) 04:13:22 436.795 MHz FM
AO-Echo 26 Oct 04:11:52 04:17:11 71° 288° (WNW) 04:22:28 ?
AO-7 26 Oct 04:14:12 04:18:35 15° 84° (E) 04:22:57 29.400 - 29.500 MHz
Oscar 16 26 Oct 04:28:21 04:32:49 31° 297° (WNW) 04:37:15 437.025 USB, Beacon 2401.1428
Sapphire 26 Oct 04:36:39 04:41:53 53° 117° (ESE) 04:47:10 437.095 MHz 1200 baud AX-25 AFSK
Uribyol 2 26 Oct 04:50:08 04:55:04 43° 293° (WNW) 04:59:57 436.500 FM
ITAMSAT 1 26 Oct 04:56:34 05:01:27 41° 294° (WNW) 05:06:18 435.822 SSB
PCSat 26 Oct 04:58:49 05:04:14 83° 122° (ESE) 05:09:42 145.825 MHz
OPAL 26 Oct 05:15:11 05:20:08 51° 66° (ENE) 05:25:03 ?
Oscar 19 26 Oct 05:23:13 05:25:27 13° 307° (NW) 05:27:41 437.125 CW, 437.150 USB
Gurwin Techsat 1B 26 Oct 05:24:38 05:29:38 42° 293° (WNW) 05:34:36 435.225 FM
TMSAT-1 26 Oct 05:34:54 05:39:56 45° 293° (WNW) 05:44:57 436.925 FM
AO-27 26 Oct 05:43:30 05:47:05 19° 303° (WNW) 05:50:39 436.795 MHz FM
JAS-1B 26 Oct 05:44:57 05:49:16 19° 306° (NW) 05:54:01 435.800 - 435.900 CW/SSB
JAS-2 26 Oct 05:46:03 05:51:55 23° 86° (E) 05:57:46 435.800 - 435.900 CW/SSB, 435.910 FM
AO-Echo 26 Oct 05:52:34 05:55:02 13° 307° (NW) 05:57:30 ?
Uosat F 26 Oct 05:58:04 06:03:03 54° 101° (E) 06:07:59 435.120 FM
